User: anonymous   Login
Location: Deer Path Park
(40.5570°N, 74.8450°W)
Time: 16:18:59
(UTC-05:00)
Language:

Iridium 49 - Orbit

View from above orbital plane
View from above orbital plane
View from above satellite
View from above satellite

Ground track
Ground track

The orbit data is extracted from the following two-line orbital elements,

1 25108U 97082E   17324.27132258  .00000152  00000-0  47216-4 0  9991
2 25108  86.3987 190.1731 0001856  88.1346  48.9138 14.34224221 42746
Epoch (UTC): 20 November 2017 06:30:42
Eccentricity: 0.0001856
inclination: 86.3987°
perigee height: 776 km
apogee height: 779 km
right ascension of ascending node: 190.1731°
argument of perigee: 88.1346°
revolutions per day: 14.34224221
mean anomaly at epoch: 48.9138°
orbit number at epoch: 4274

The dashed part of the orbit path shows where the satellite is in the earth's shadow,  

DLR